STARLINK-1542 (46073 NORAD) Tracking and Keplerian Element Data

This shows tracking and keplerian element data for the satellite.

Feedback or suggestion? Click here.




ElementValue
Catalog46073
NameSTARLINK-1542
Epoch Orbit1934
Epoch Day336.84888617
Epoch Year2020
RAAN93.064
Inclination53.0022
Eccentricity0.0001327
Argument of Perigee100.5445
Mean Anonmoly259.5693
Mean Motion15.05585892
Decay Rate1.248E-05
L11 46073U 20055AY 20336.84888617 .00001248 00000-0 10480-3 0 9997
L22 46073 53.0022 93.0640 0001327 100.5445 259.5693 15.05585892 19342

Live tracking and technical data element details for STARLINK-1542 (NORAD 46073). STARLINK-1542 can be tracked NOW for your location showing map with azimuth and elevation plus other details from your city location.

Track the satellite on the map from your city or location and see movement details for azimuth, elevation, latitude, longitude, range, height, and movement on the map or in text.







IsCatalogInMostPopularTable: catalog: 46073, numindb: 27
Update: records affected: 1



GetName: 46073 STARLINK-1542

Hit Count: updated at: Wed, 02 Dec 2020 18:22:18 GMT